Weather observations for the past three days for
Cleveland Hopkins International Airport
Metric (Imperial)
Date Time (edt) Wind (kph) Vis. (km) Weather Sky Cond. Temperature (ºC) Relative Humidity Wind Chill (°C) Heat Index (°C) Pressure Precipitation (cm)
Air Dwpt 6 hour altimeter (cm) sea level (mb) 1 hr 3 hr 6 hr
Max. Min.
21 02:51 S 6 16.09 A Few Clouds FEW240 16.7 12.8 78% 76.4 1019.8
21 01:51 Calm 16.09 A Few Clouds FEW240 16.1 12.8 25 15.6 81% 76.43 1020.0
21 00:51 Calm 16.09 Partly Cloudy SCT250 16.7 12.8 78% 76.4 1019.7
20 23:51 Calm 16.09 Partly Cloudy SCT250 20 13.3 65% 76.4 1019.8
20 22:51 Calm 16.09 Partly Cloudy SCT250 20 12.8 63% 76.43 1020.0
20 21:51 N 7 16.09 Partly Cloudy SCT250 22.2 12.8 55% 76.43 1020.0
20 20:51 N 7 16.09 Mostly Cloudy BKN250 22.8 12.2 51% 76.4 1019.7
20 19:51 NW 6 16.09 Partly Cloudy SCT250 25 10 27.2 24.4 39% 26 76.4 1019.6
20 18:51 N 13 16.09 Partly Cloudy FEW040 SCT250 25 11.1 42% 26 76.4 1019.8
20 17:51 N 13 16.09 Partly Cloudy FEW040 SCT250 26.1 12.2 42% 26 76.4 1019.7
20 16:51 N 17 16.09 A Few Clouds FEW023 FEW250 26.7 11.7 39% 27 76.43 1020.1
20 15:51 N 17 16.09 A Few Clouds FEW022 FEW250 26.7 11.1 38% 27 76.45 1020.3
20 14:51 Vrbl 9 16.09 A Few Clouds FEW045 FEW250 26.1 11.7 41% 26 76.48 1020.6
20 13:51 N 17 16.09 A Few Clouds FEW045 FEW250 26.7 12.2 26.7 17.2 41% 27 76.5 1020.9
20 12:51 N 19 16.09 Fair CLR 25.6 12.2 43% 26 76.5 1021.0
20 11:51 N 13 16.09 Fair CLR 25.6 12.2 43% 26 76.5 1021.2
20 10:51 N 11 11.27 Fair CLR 25 11.1 42% 26 76.5 1020.9
20 09:51 N 11 16.09 A Few Clouds FEW250 23.3 11.1 46% 76.5 1020.9
20 08:51 Calm 16.09 A Few Clouds FEW250 20.6 11.1 55% 76.53 1021.3
20 07:51 Calm 16.09 A Few Clouds FEW250 17.2 11.1 17.2 12.2 68% 76.5 1021.2
20 06:51 S 9 16.09 A Few Clouds FEW250 13.3 10.6 84% 76.48 1021.0
20 05:51 S 6 16.09 A Few Clouds FEW250 13.3 10.6 84% 76.48 1020.9
20 04:51 Calm 16.09 Fair CLR 13.9 10.6 81% 76.48 1020.8
20 03:51 Calm 16.09 Fair CLR 14.4 10.6 78% 76.48 1020.8
20 02:51 Calm 16.09 A Few Clouds FEW250 13.3 10.6 84% 76.48 1020.8
20 01:51 Calm 16.09 A Few Clouds FEW250 15.6 10 22.8 13.9 70% 76.5 1021.1
20 00:51 Calm 16.09 A Few Clouds FEW250 16.7 11.1 70% 76.5 1021.2
19 23:51 Calm 16.09 A Few Clouds FEW250 17.2 10.6 65% 76.53 1021.5
19 22:51 NE 7 16.09 A Few Clouds FEW250 19.4 10.6 57% 76.56 1021.7
19 21:51 N 6 16.09 A Few Clouds FEW250 21.1 11.1 53% 76.56 1021.7
19 20:51 NE 11 16.09 A Few Clouds FEW250 21.1 10.6 51% 76.56 1021.6
19 19:51 N 9 16.09 Fair CLR 22.8 10 24.4 22.8 44% 76.53 1021.5
19 18:51 N 13 16.09 Fair CLR 23.3 7.8 37% 76.53 1021.7
19 17:51 N 15 16.09 Fair CLR 23.9 6.7 33% 25 76.56 1021.9
19 16:51 NE 13 16.09 Fair CLR 23.9 7.8 36% 25 76.58 1022.2
19 15:51 N 15 16.09 Fair CLR 23.9 8.9 39% 25 76.63 1022.8
19 14:51 N 19 G 37 16.09 A Few Clouds FEW050 23.9 10 42% 25 76.66 1023.1
19 13:51 N 19 16.09 A Few Clouds FEW050 24.4 10 24.4 16.7 40% 25 76.68 1023.3
19 12:51 N 17 16.09 A Few Clouds FEW050 23.9 9.4 40% 25 76.68 1023.6
19 11:51 N 15 16.09 A Few Clouds FEW035 23.3 9.4 41% 76.71 1023.8
19 10:51 Vrbl 6 16.09 A Few Clouds FEW035 22.8 8.9 41% 76.71 1023.9
19 09:51 N 7 16.09 A Few Clouds FEW035 22.2 10 46% 76.71 1024.0
19 08:51 Calm 16.09 A Few Clouds FEW035 20.6 12.8 61% 76.71 1023.8
19 07:51 Calm 16.09 A Few Clouds FEW035 16.1 12.2 18.3 12.2 78% 76.68 1023.5
19 06:51 S 6 16.09 A Few Clouds FEW032 13.3 11.1 87% 76.63 1023.0
19 05:51 S 6 16.09 Fair CLR 13.3 10.6 84% 76.61 1022.6
19 04:51 Calm 16.09 Fair CLR 12.8 10.6 87% 76.58 1022.2
19 03:51 Calm 16.09 Fair CLR 14.4 10.6 78% 76.56 1021.9
19 02:51 N 9 16.09 Fair CLR 17.8 10 60% 76.56 1021.9
19 01:51 N 11 16.09 Fair CLR 17.8 9.4 21.7 17.8 58% 76.61 1022.3
19 00:51 N 11 16.09 Fair CLR 18.3 9.4 56% 76.58 1022.3
18 23:51 N 11 16.09 A Few Clouds FEW040 18.9 9.4 54% 76.58 1022.0
18 22:51 N 13 16.09 A Few Clouds FEW040 FEW250 18.9 10.6 59% 76.56 1021.7
18 21:51 N 13 16.09 Partly Cloudy SCT250 19.4 10.6 57% 76.53 1021.4
18 20:51 N 15 16.09 Partly Cloudy SCT060 20.6 11.1 55% 76.5 1021.2
18 19:51 N 19 16.09 Partly Cloudy SCT060 21.7 11.7 24.4 21.7 53% 76.5 1020.9
18 18:51 N 20 G 35 16.09 Mostly Cloudy BKN035 BKN047 22.8 12.8 53% 76.45 1020.3
18 17:51 N 19 16.09 Partly Cloudy FEW035 SCT060 23.3 12.8 52% 76.45 1020.3
18 16:51 N 20 16.09 Mostly Cloudy SCT033 BKN047 22.8 13.3 55% 76.45 1020.3
18 15:51 N 24 G 31 16.09 Mostly Cloudy BKN038 23.3 12.2 50% 76.45 1020.3
18 14:51 N 20 G 30 16.09 Partly Cloudy SCT034 SCT043 23.9 12.2 48% 25 76.45 1020.2
18 13:51 N 22 G 33 16.09 Partly Cloudy SCT033 22.8 12.8 23.9 20.6 53% 76.45 1020.2
18 12:51 N 20 G 33 16.09 Mostly Cloudy SCT034 BKN045 22.8 12.8 53% 76.45 1020.4
18 11:51 N 19 16.09 Mostly Cloudy FEW026 SCT039 BKN050 22.8 12.8 53% 76.45 1020.3
18 10:51 N 20 16.09 Overcast FEW024 SCT030 OVC050 22.2 14.4 61% 76.43 1019.8
18 09:51 N 17 16.09 Mostly Cloudy SCT024 BKN034 22.2 14.4 61% 76.38 1019.3
18 08:51 N 24 16.09 Overcast SCT022 BKN032 OVC200 20.6 14.4 68% 76.35 1018.8
18 07:51 N 22 16.09 Partly Cloudy FEW024 SCT046 SCT250 21.1 14.4 21.7 19.4 66% 76.3 1018.4
18 06:51 N 19 16.09 Partly Cloudy FEW025 SCT031 SCT250 20 14.4 70% 76.25 1017.5
18 05:51 N 15 16.09 A Few Clouds FEW035 FEW060 FEW250 19.4 13.9 71% 76.2 1016.9
18 04:51 N 17 16.09 A Few Clouds FEW060 20 14.4 70% 76.15 1016.3
18 03:51 N 19 16.09 Partly Cloudy SCT060 21.1 14.4 66% 76.12 1015.7
Date Time (edt) Wind (kph) Vis. (km) Weather Sky Cond. Air Dwpt Max. Min. Relative Humidity Wind Chill (°C) Heat Index (°C) altimeter (cm) sea level (mb) 1 hr 3 hr 6 hr
6 hour
Temperature (ºC) Pressure Precipitation (cm)